Back to catalog

FENGYUN 1C DEB

AliveSSO
NORAD 30989·DEBRIS·🇨🇳 China

Launched May 10, 1999 from Taiyuan Satellite Launch Center

Loading…

Next Passes (next 24 hours)

TLE

FreshSource: Space-Track

Epoch: Sep 14, 2026, 04:05 UTC

1 30989U 99025BCF 26257.17069848  .00001232  00000-0  63385-3 0  9995
2 30989  99.0396 339.2986 0088215  40.6887 320.0832 14.15146891998828

Track FENGYUN 1C DEB in real time with AllMySat

Download on the App Store